Location: Endfield
(51.6667°N, 0.0667°W)
Time: 13:30:43
(UTC+00:00)

Meteor 1-10 Rocket - Pass Details

Date: 19 May 2024
Orbit: 834 x 910 km, 81.3° (Epoch: 16 June)

Event Time Altitude Azimuth Distance (km) Brightness Sun altitude
Exits shadow 22:02:23 14° 187° (S) 2,263 5.9 -14.1°
Maximum altitude 22:07:26 82° 101° (E) 881 4.2 -14.4°
Drops below altitude 10° 22:13:07 10° 14° (NNE) 2,498 7.4 -14.8°
Sets 22:15:32 0° 14° (NNE) 3,429 8.2 -15.0°
